Location: Caltech
(34.1382°N, 118.1253°W)
Time: 13:38:48
(UTC-07:00)

SL-08 RB Rocket - Visible Passes

Search period start: 22 May 2015 00:00
Search period end: 01 June 2015 00:00
Orbit: 649 x 686 km, 98.1° (Epoch: 22 May)

Date Brightness Start Highest point End Pass type
(mag) Time Alt. Az. Time Alt. Az. Time Alt. Az.
22 May 5.9 21:09:31 10° E 21:10:31 11° ENE 21:11:51 10° NE visible
22 May 4.2 22:47:40 60° WNW 22:47:40 60° WNW 22:51:46 10° NNW visible
23 May 5.1 21:41:52 23° E 21:42:18 24° ENE 21:46:04 10° NNE visible
23 May 5.5 23:20:01 27° W 23:20:01 27° W 23:23:16 10° NW visible
24 May 4.0 22:14:13 52° ENE 22:14:13 52° ENE 22:18:44 10° N visible
24 May 6.4 23:52:22 12° W 23:52:22 12° W 23:53:26 10° WNW visible
25 May 6.0 21:08:47 10° ENE 21:09:35 11° ENE 21:10:42 10° NE visible
25 May 4.0 22:46:34 64° WNW 22:46:34 64° WNW 22:50:50 10° NNW visible
26 May 5.1 21:40:46 22° E 21:41:21 23° ENE 21:45:05 10° NNE visible
26 May 5.4 23:18:55 28° W 23:18:55 28° W 23:22:20 10° NW visible
27 May 4.0 22:13:07 51° E 22:13:14 51° ENE 22:17:46 10° N visible
27 May 6.3 23:51:16 12° W 23:51:16 12° W 23:52:34 10° WNW visible
28 May 6.0 21:08:09 10° ENE 21:08:38 10° ENE 21:09:27 10° NE visible
28 May 3.9 22:45:28 67° WNW 22:45:28 67° WNW 22:49:52 10° NNW visible
29 May 5.1 21:39:39 22° E 21:40:24 23° ENE 21:44:04 10° NNE visible
29 May 5.3 23:17:49 29° W 23:17:49 29° W 23:21:23 10° NW visible
30 May 4.0 22:12:00 49° E 22:12:16 50° ENE 22:16:47 10° N visible
30 May 6.3 23:50:10 13° W 23:50:10 13° W 23:51:42 10° WNW visible
31 May 3.8 22:44:22 71° W 22:44:22 71° W 22:48:53 10° NNW visible
